Flag for Germany Weather past 2 weeks in Kamp-Lintfort, North Rhine-Westphalia, Germany

Now
39 °F

Passing clouds.


Feels Like: 33 °F
Forecast: 35 / 44 °F
Wind: 8 mph from West

Location: Duesseldorf

Current Time: Mar 2, 2015 at 9:52:16 PM

Latest Report: Mar 2, 2015 at 9:00 PM


Visibility: 22 mi

Pressure: 29.91 "Hg

Humidity: 72%

Dew point: 31 °F

Location of Kamp-LintfortLocation

Historic Weather in Kamp-Lintfort — Graph

°F

Kamp-Lintfort temperature yesterday

Maximum temperature yesterday: 52 °F (at 1:00 PM)
Minimum temperature yesterday: 40 °F (at 6:00 AM)
Average temperature yesterday: 46 °F

Past Weeks' High & Low Weather Summary

 TemperatureHumidityPressure
High52 °F (Mar 1, 1:00 PM)100% (Feb 18, 7:00 AM)30.78 "Hg (Feb 18, 7:00 AM)
Low28 °F (Feb 28, 5:00 AM)47% (Mar 2, 2:00 PM)29.35 "Hg (Feb 21, 5:00 AM)
Average40 °F82%29.95 "Hg
* Reported Feb 15 8:00 PM — Mar 2 8:00 PM, Kamp-Lintfort, Weather by CustomWeather, © 2015

Note: Actual official high and low records may vary slightly from our data, if they occured in-between our weather recording intervals... More about our weather records

Advertising

Kamp-Lintfort weather history for previous 24 hours

 ConditionsComfort  
Time TempWeatherWind HumidityBarometerVisibility
8:00 PM
Mon, Mar 2
39 °FPassing clouds.5 mph73%29.87 "Hg22 mi
7:00 PM39 °FPassing clouds.6 mph81%29.84 "Hg12 mi
6:00 PM38 °FScattered clouds.6 mph85%29.81 "Hg12 mi
5:00 PM38 °FLow clouds.7 mph93%29.78 "Hg11 mi
4:00 PM38 °FRain showers. Low clouds.10 mph91%29.74 "Hg6 mi
3:00 PM47 °FOvercast.8 mph50%29.70 "Hg22 mi
2:00 PM48 °FPartly sunny.9 mph47%29.70 "Hg31 mi
1:00 PM48 °FPartly sunny.9 mph49%29.71 "Hg31 mi
12:00 PM46 °FPassing clouds.9 mph53%29.70 "Hg31 mi
11:00 AM45 °FPassing clouds.9 mph61%29.69 "Hg31 mi
10:00 AM43 °FPassing clouds.8 mph65%29.68 "Hg31 mi
9:00 AM41 °FPassing clouds.5 mph68%29.66 "Hg31 mi
8:00 AM40 °FPassing clouds.5 mph73%29.63 "Hg25 mi
7:00 AM41 °FPassing clouds.6 mph70%29.60 "Hg22 mi
6:00 AM41 °FPassing clouds.6 mph72%29.59 "Hg31 mi
5:00 AM42 °FPassing clouds.8 mph69%29.57 "Hg28 mi
3:00 AM45 °FOvercast.12 mph68%29.50 "Hg25 mi
2:00 AM46 °FOvercast.9 mph78%29.47 "Hg28 mi
1:00 AM47 °FPassing clouds.12 mph78%29.44 "Hg22 mi
12:00 AM48 °FOvercast.8 mph71%29.47 "Hg25 mi
11:00 PM
Sun, Mar 1
46 °FOvercast.5 mph77%29.50 "Hg28 mi
9:00 PM44 °FPassing clouds.6 mph81%29.60 "Hg25 mi
Weather by CustomWeather, © 2015

See weather overviewHow to use our weather pages